Regional Weather Roundup
Issued by NWS

Home | Current Version | Previous Version | Text Only | Print | Product List | Glossary On
Versions: 1 2 3 4 5 6 7 8 9 10 11 12 13 14 15 16 17 18 19 20 21 22 23 24 25 26 27 28 29 30 31 32 33 34 35 36 37 38 39 40 41 42 43 44 45 46 47 48 49 50
000
ASUS43 KLMK 241710
RWRKY
KENTUCKY REGIONAL WEATHER ROUNDUP
NATIONAL WEATHER SERVICE LOUISVILLE KY
1200 PM EST TUE JAN 24 2017

NOTE "FAIR" INDICATES FEW OR NO CLOUDS BELOW 12,000 FEET
WITH NO SIGNIFICANT WEATHER AND/OR OBSTRUCTIONS TO VISIBILITY.

KYZ001>023-026-027-061>063-070>075-241800-
WESTERN AND SOUTH CENTRAL KENTUCKY

CITY           SKY/WX    TMP DP  RH WIND       PRES   REMARKS
PADUCAH        SUNNY     47  34  60 S7        29.91F
HENDERSON      CLOUDY    43  32  65 SE6       29.91F
OWENSBORO      CLOUDY    42  35  76 SE6       29.93F
HOPKINSVILLE   MOSUNNY   43  34  70 VRB6      29.93F
BOWLING GREEN  CLOUDY    43  34  70 E3        29.95F
GLASGOW        CLOUDY    40  33  75 CALM      29.94F
$$

KYZ024-025-028>034-038-045-046-053-241800-
NORTH CENTRAL KENTUCKY

CITY           SKY/WX    TMP DP  RH WIND       PRES   REMARKS
LOUISVILLE/SDF CLOUDY    45  33  63 W8        29.91F
LOUISVILLE/LOU CLOUDY    44  33  65 NW8       29.92F
FORT KNOX      CLOUDY    42  34  72 SW7       29.90F
$$

KYZ035>037-039>044-047>052-055>060-089>105-241800-
NORTHEAST KENTUCKY

CITY           SKY/WX    TMP DP  RH WIND       PRES   REMARKS
LEXINGTON      CLOUDY    43  37  79 W13       29.89F
COVINGTON      CLOUDY    43  38  82 NW10      29.86F
FRANKFORT      CLOUDY    44  35  70 W9        29.89F
$$

KYZ054-064>069-076>088-106>120-241800-
SOUTHEAST KENTUCKY

CITY           SKY/WX    TMP DP  RH WIND       PRES   REMARKS
JACKSON        CLOUDY    40  38  93 VRB6      29.87S FOG
LONDON         CLOUDY    40  37  89 W12       29.91S WCI  33
SOMERSET       CLOUDY    39  37  93 W7        29.94F WCI  34
MIDDLESBORO    CLOUDY    41  39  93 W5        29.92S
MONTICELLO     CLOUDY    41  35  79 W7        29.95F
$$




USA.gov is the U.S. government's official web portal to all federal, state and local government web resources and services.